Simultaneous Nadir Overpasses (SNOs) Predictions

Prediction of SNOs between LANDSAT-8 and METOP-A Satellite Orbit:

Table of predicted SNOs for the next 14.0 days since TLE Epoch: 9/25/2021
Index Date (LANDSAT-8) Time (LANDSAT-8) Lat,Lon (LANDSAT-8) SZA (LANDSAT-8 ) Date (METOP-A) Time (METOP-A) Lat,Lon (METOP-A) SZA (METOP-A ) Distance(km) Time Diff (sec)
1 09/26/2021 05:40:20 -81.32, -41.66 94.77 09/26/2021 05:39:19 -81.33, -41.73 94.80 1.32 61
2 09/26/2021 06:29:47 81.31, 125.74 85.22 09/26/2021 06:29:59 81.32, 125.87 85.24 2.32 12
3 09/29/2021 01:14:37 -81.32, 24.65 93.67 09/29/2021 01:13:39 -81.33, 24.67 93.69 1.12 58
4 09/29/2021 02:04:03 81.32,-167.59 86.37 09/29/2021 02:04:19 81.32,-167.76 86.35 2.92 16
5 10/01/2021 20:48:54 -81.31, 90.96 92.58 10/01/2021 20:47:59 -81.33, 91.04 92.58 2.18 55
6 10/01/2021 21:38:20 81.32,-101.30 87.46 10/01/2021 21:38:39 81.32,-101.40 87.46 1.68 19
7 10/04/2021 16:23:09 -81.32, 157.64 91.44 10/04/2021 16:22:17 -81.31, 157.78 91.45 2.66 52
8 10/04/2021 17:12:36 81.31, -35.03 88.54 10/04/2021 17:12:58 81.32, -35.07 88.55 1.37 22
9 10/07/2021 11:57:26 -81.32,-136.07 90.36 10/07/2021 11:56:37 -81.31,-135.89 90.37 2.95 49



Historial Predications of SNOs between LANDSAT-8 and METOP-A
